Location: Newark
(52.8300°N, 8.0000°E)
Time: 22:19:10
(UTC+00:00)

STARLINK-1092 - Pass Details

Date: 31 January 2020
Orbit: 348 x 351 km, 53.0° (Epoch: 17 February)

Event Time Altitude Azimuth Distance (km) Brightness Sun altitude
Rises 17:00:11 0° 284° (WNW) 2,165 7.8 -7.8°
Reaches altitude 10° 17:02:15 10° 276° (W) 1,320 6.8 -8.1°
Maximum altitude 17:05:02 40° 205° (SSW) 533 4.0 -8.5°
Drops below altitude 10° 17:07:49 10° 133° (SE) 1,316 5.3 -8.9°
Enters shadow 17:09:20 - 127° (SE) 1,930 6.1 -9.1°
